Погода Удское

Погода Удское : погода сейчас, прогноз погоды и архив. Всё, что Вы хотите узнать о погоде Удское!

Поиск расширенной информации на нашем сайте:

Другие новости

Новости СМИ2

Главная страница сайта

Новости сайта

03.07.2017

Напоминаем, что на нашем специализированном сайте Метеоцентр.Азия вы можете получить высокодетализированные автоматические прогнозы погоды по пунктам России, СНГ и мира в авиационном формате (включающие направление и скорость ветра, видимость, явления погоды, количество и форму облачности, нижнюю и верхнюю границу облачности).


Погода Удское - сегодня

Время (UTC), дата Ветер
(°,м/с) 
Видим.   Явления Облачность Т
(°С)
Тd
(°С)
f(%) Тe
(°С)
Pmin
(гПа)
dP
(гПа)
Po
(мм)
O2
(г/м3)
Тmin Tmax R s Состояние
почвы
09 26.07.17 тихо ()   20000 м    8/4 1000 м средняя 
[Sc diur, vesp|As op]
+18.8 +16 84 +29  1002.8  0.2  747  278    +25       
12 26.07.17 тихо ()   20000 м    8/4 1000 м средняя 
[Sc|As op]
+14.4 +13.1 92 +20  1004.6  1.6  748  284           
15 26.07.17 тихо ()   20000 м    4/0 верхняя 
[Ci fib]
+8.4 +8 97 +8  1005.8  1.1  749  291           
18 26.07.17 тихо ()   20000 м    5/0 средняя, верхняя 
[Ac lent|Cc]
+6 +5.8 99 +6  1006.9  749  295           
21 26.07.17 тихо ()   20000 м    9/0 средняя, верхняя 
[Ac lent|Cc]
+10.2 +9.8 97 +11  1008.1  1.3  750  290  +5.9        влажная 
00 27.07.17 290 (З) 20000 м    9/3 600 м верхняя 
[Cu med, cong|Cc]
+17.2 +13.5 79 +25  1008.1  0.3  751  282           
03 27.07.17 250 (З) 20000 м    9/3 600 м кучево-дожд., средняя, верхняя 
[Cb cap|Ac lent|Cs]
+21.8 +14.7 64 +30  1007.8  -0.2  751  277           
06 27.07.17 230 (ЮЗ) 20000 м    5/3 600 м кучево-дожд., средняя, верхняя 
[Cb cap|Ac lent|Ci sp]
+24.4 +13.5 51 +31  1006.6  -1.2  750  275           
09 27.07.17 200 (Ю) 20000 м  слаб. дождь{ливн. осадки}  10/1 600 м кучево-дожд., средняя 
[Cb cap|As op]
+17 +15.5 91 +28  1007.7  750  281    +25.1     
12 27.07.17 тихо ()   20000 м  {ливн. осадки, дождь}  10/1 600 м кучево-дожд., средняя 
[Cb cap|Ac As]
+14.8 +13.9 94 +22  1009.1  1.2  751  284           
15 27.07.17 тихо ()   20000 м    10/1 600 м кучево-дожд., средняя 
[Cb cap|Ac As]
+13.6 +12.7 94 +19  1009.1  751  286           
18 27.07.17 тихо ()   20000 м  слаб. дождь  10/1 600 м кучево-дожд., средняя 
[Cb cap|Ac As]
+12.2 +11.6 96 +15  1009.2  -0.1  751  288           
21 27.07.17 тихо ()   20000 м  слаб. дождь  10/8 600 м кучево-дожд., средняя 
[Cb cap|As op]
+13.3 +12.9 97 +18  1009.7  0.5  752  286  +12      влажная 
00 28.07.17 тихо ()   20000 м  в посл. час дождь  10/8 600 м кучево-дожд., средняя, верхняя 
[Cb cap|As op|Cs]
+17.2 +15.8 91 +27  1009.6  0.1  752  282           
03 28.07.17 тихо ()   10 км  дождь  10/8 300 м кучево-дожд., средняя 
[Cb cap|As op]
+17.8 +16.3 91 +29  1009.7  0.1  752  281           
06 28.07.17 тихо ()   10 км  дождь  10/8 300 м кучево-дожд., средняя 
[Cb cap|As op]
+18 +16.2 89 +29  1009.5  -0.2  752  281           
09 28.07.17 тихо ()   20000 м  {ливн. осадки, дождь}  10/4 600 м кучево-дожд., средняя 
[Cb cap|As op]
+17 +13.7 81 +23  1009.7  0.2  752  282    +18.4     
12 28.07.17 тихо ()   20000 м    8/4 600 м кучево-дожд., средняя, верхняя 
[Cb cap|Ac As|Cs]
+15.3 +14.1 93 +22  1009.4  -0.5  752  284           
15 28.07.17 тихо ()   20000 м    8/4 600 м кучево-дожд., средняя, верхняя 
[Cb cap|Ac As|Cs]
+14.9 +13.5 91 +21  1009.5  0.1  752  284           
18 28.07.17 тихо ()   20000 м    8/4 600 м кучево-дожд., средняя, верхняя 
[Cb cap|Ac As|Cs]
+13.7 +13.2 97 +19  1009.3  -0.2  751  286           
21 28.07.17 тихо ()   20000 м    8/4 600 м кучево-дожд., средняя, верхняя 
[Cb cap|Ac As|Cs]
+14.3 +13.6 96 +21  1009.7  0.4  752  285  +13.7        влажная 
00 29.07.17 230 (ЮЗ) 20000 м    8/5 600 м кучево-дожд., средняя, верхняя 
[Cb cap|Ac trans|Cc]
+18.6 +15.7 83 +30  1009.4  -0.1  752  280           
03 29.07.17 200 (Ю) 20000 м    5/3 600 м средняя, верхняя 
[Cu hum|Ac lent|Cc]
+22.2 +16.3 69 +33  1008.5  -0.8  751  276           
06 29.07.17 200 (Ю) 20000 м    4/3 600 м кучево-дожд., верхняя 
[Cb cap|Cc]
+26 +16.3 55 +37  1006.8  -1.6  750  272           
09 29.07.17 200 (Ю) 20000 м  {гроза, ливн. осадки}  8/4 600 м кучево-дожд., средняя, верхняя 
[Cb cap|Ac As|Cc]
+24.9 +20 74 +44  1007  0.2  750  272    +27.6  0.0     
Время (UTC), дата Ветер
(°,м/с) 
Видим.   Явления Облачность Т
(°С)
Тd
(°С)
f(%) Тe
(°С)
Pmin
(гПа)
dP
(гПа)
Po
(мм)
O2
(г/м3)
Тmin Tmax R s Состояние
почвы

Для получения пояснительной информации подведите курсор к названию столбца.

ПОГОДА Удское - архив

Всё, что Вы хотите узнать о погоде Удское - удобно и подробно!

Выберите нужную дату (начиная с 1 января 2015* года) и нажмите кнопку "Найти".
Будут отображены архивные сводки погоды по пункту Удское, начиная с указанной даты.


Отображать данные в формате CSV (для использования в таблицах Excel)


Внимание! Наш архив погоды предназначен исключительно для личного некоммерческого использования в познавательных целях. Если Вам необходимы официальные справки о состоянии погоды (для производственных, юридических, коммерческих и т.п. целей), обращайтесь в органы Росгидромета.

*Примечание: данная дата относится к архиву по метеостанциям СССР (Россия, СНГ, Балтия).
Архив по метеостанциям Зарубежной Европы и Азии (кроме Китая) хранится 10 дней, по другим регионам земного шара (Китай, Африка, Америка, Австралия, Океания) - 1 день.

Удское - район местоположения метеостанции


Название, широта, долгота, высота метеостанции:
Удское 54.53°ш. 134.42°д. 57 м над ур. моря [Российская Федерация]

Дополнительная информация

В oтличие oт бoльшинства пoгoдных сайтoв мы публикуем пoдрoбную метеoинфoрмацию в детальнoм прoфессиoнальнoм фoрмате.

Характеристики температуры и влажнoсти вoздуха измеряются на высoте 2 м в тени вдали oт зданий и деревьев.
Скoрoсть ветра измеряется на высoте 10 м (на урoвне рoста челoвека скoрoсть ветра ниже в 1.5-2 раза). Если метеoстанция нахoдится в гoрoде или в лесу, тo скoрoсть ветра занижена на 2-4 м/с пo сравнению с oткрытым местoм. Скoрoсть ветра над акватoриями крупных рек и oзёр, а также на вершинах хoлмoв на 2-5 м/с выше, чем в oбычных услoвиях.
Атмoсфернoе давление в разных тoчках местнoсти мoжет значительнo oтличаться oт давления на метеoстанции, в зависимoсти oт услoвий рельефа (при пoдъёме на 10 м давление пoнижается примернo на 1 мм рт.ст.).